This demonstration page uses our WeatherBlox Daily Observations layout. Learn more.

Left ArrowRight Arrow

39.12711, -84.51439

Hourly Observations for August 18, 2022

Temp ( °F °C ) Dew Point ( °F °C ) Humidity (%) Winds ( mph kmh ) Pressure ( in mb ) Visibility ( mi km ) Precip ( " mm )
12:53 am 00:53 Clear 64 17.8 62 16.7 93 93 Calm 30.02 1017 10 16 0.00 0.00
1:53 am 01:53 Clear 63 17.2 62 16.7 97 97 Calm 30.01 1016 9 14 0.00 0.00
2:53 am 02:53 Clear 62 16.7 61 16.1 96 96 Calm 30.01 1016 8 13 0.00 0.00
3:53 am 03:53 Clear with Mist and Fog 62 16.7 61 16.1 96 96 Calm 30.01 1016 5 8 0.00 0.00
4:28 am 04:28 Clear with Mist and Fog 61 16.1 60 15.6 97 97 Calm 30.03 1017 2 2 0.00 0.00
4:32 am 04:32 Clear with Fog 61 16.1 61 16.1 100 100 Calm 30.03 1017 0 0 0.00 0.00
4:41 am 04:41 Clear with Mist and Fog 61 16.1 60 15.6 97 97 Calm 30.03 1017 1 2 0.00 0.00
4:43 am 04:43 Clear with Mist and Fog 61 16.1 60 15.6 97 97 Calm 30.03 1017 3 5 0.00 0.00
4:53 am 04:53 Clear with Mist and Fog 61 16.1 60 15.6 97 97 NE 3 6 30.02 1017 5 8 0.00 0.00
5:53 am 05:53 Clear with Mist and Fog 60 15.6 59 15 96 96 NNE 3 6 30.02 1017 4 6 0.00 0.00
6:53 am 06:53 Clear 60 15.6 60 15.6 100 100 Calm 30.03 1017 10 16 0.00 0.00
7:53 am 07:53 Sunny 62 16.7 62 16.7 100 100 Calm 30.04 1017 10 16 0.00 0.00
8:53 am 08:53 Sunny 67 19.4 64 17.8 90 90 E 5 7 30.04 1017 10 16 0.00 0.00
9:53 am 09:53 Sunny 72 22.2 62 16.7 71 71 E 5 7 30.04 1017 10 16 0.00 0.00
10:53 am 10:53 Sunny 75 23.9 62 16.7 64 64 VRB 5 7 30.04 1017 10 16 0.00 0.00
11:53 am 11:53 Partly Cloudy 79 26.1 59 15 50 50 E 7 11 30.03 1017 10 16 0.00 0.00
12:53 pm 12:53 Partly Cloudy 80 26.7 60 15.6 51 51 ENE 9 15 30.02 1017 10 16 0.00 0.00
1:53 pm 13:53 Partly Cloudy 80 26.7 57 13.9 45 45 NNW 3 6 30.02 1017 10 16 0.00 0.00
2:53 pm 14:53 Partly Cloudy 82 27.8 57 13.9 43 43 Calm 30.00 1016 10 16 0.00 0.00
3:53 pm 15:53 Mostly Sunny 84 28.9 56 13.3 38 38 ENE 3 6 29.99 1016 10 16 0.00 0.00
4:53 pm 16:53 Partly Cloudy 83 28.3 57 13.9 41 41 NNE 5 7 29.98 1015 10 16 0.00 0.00
5:53 pm 17:53 Partly Cloudy 82 27.8 58 14.4 44 44 Calm 29.97 1015 10 16 0.00 0.00
6:53 pm 18:53 Mostly Cloudy 78 25.6 64 17.8 62 62 ESE 3 6 29.97 1015 10 16 0.00 0.00
7:53 pm 19:53 Partly Cloudy 76 24.4 65 18.3 69 69 Calm 29.96 1015 10 16 0.00 0.00
8:53 pm 20:53 Clear 69 20.6 64 17.8 84 84 Calm 29.97 1015 10 16 0.00 0.00
9:53 pm 21:53 Clear 67 19.4 64 17.8 90 90 Calm 29.98 1015 10 16 0.01 0.13
10:53 pm 22:53 Mostly Clear 66 18.9 63 17.2 90 90 Calm 29.99 1016 10 16 0.00 0.00
11:53 pm 23:53 Clear 64 17.8 63 17.2 96 96 Calm 30.00 1016 9 14 0.00 0.00

Powered by AerisWeather